Rayong, Thailand

4:09 PM +07 on June 25, 2018 (GMT +0700)
U-Taphao International

Weather History for VTBU - November, 2017

Change the Weather History Date:

Tuesday, November 14, 2017

  Actual Average Record
Temperature  
Mean Temperature 82 °F -  
Max Temperature 88 °F 88 °F 95 °F (2016)
Min Temperature 75 °F 75 °F 69 °F (2008)
Cooling Degree Days 16    
Growing Degree Days 32 (Base 50)    
Moisture  
Dew Point 75 °F    
Average Humidity 85    
Maximum Humidity 99    
Minimum Humidity 66    
Precipitation  
Precipitation 0.00 in - - ()
Sea Level Pressure  
Sea Level Pressure 29.79 in    
Wind  
Wind Speed 3 mph ()    
Max Wind Speed 12 mph    
Max Gust Speed 23 mph    
Visibility 2.0 miles    
Events Fog , Rain , Thunderstorm    
Averages and records for this station are not official NWS values.
T = Trace of Precipitation, MM = Missing Value Source: Averaged Metar Reports

Daily Weather History Graph

Daily Weather History Graph

Search for Another Location

Airport or City:

Astronomy

Nov. 14, 2017 Rise Set
Actual Time 6:12 AM +07 5:45 PM +07
Civil Twilight 5:50 AM +07 6:07 PM +07
Nautical Twilight 5:24 AM +07 6:33 PM +07
Astronomical Twilight 4:58 AM +07 6:59 PM +07
Moon 2:36 AM +07 (11/14) 3:03 PM +07 (11/14)
Length of Visible Light 12h 17m
Length of Day
11h 33m
Waning Crescent, 17% of the Moon is Illuminated
Nov 14
Waning Crescent
Nov 18
New
Nov 27
First Quarter
Dec 3
Full
Dec 10
Last Quarter

Hourly Weather History & Observations

Time (+07) Temp. Heat Index Dew Point Humidity Pressure Visibility Wind Dir Wind Speed Gust Speed Precip Events Conditions
12:00 AM 77.0 °F - 75.2 °F 94% 29.80 in 1.9 mi Calm Calm - N/A   Scattered Clouds
12:30 AM 77.0 °F - 75.2 °F 94% 29.80 in 1.9 mi NNE 4.6 mph - N/A   Scattered Clouds
1:00 AM 77 °F - 76 °F 97% 29.81 in 4 mi Calm Calm - -   Mist
1:30 AM 77.0 °F - 75.2 °F 94% 29.77 in 1.9 mi North 4.6 mph - N/A   Scattered Clouds
2:00 AM 77.0 °F - 75.2 °F 94% 29.77 in 1.9 mi North 3.5 mph - N/A   Scattered Clouds
2:30 AM 77.0 °F - 75.2 °F 94% 29.77 in 1.9 mi Calm Calm - N/A   Scattered Clouds
3:00 AM 77.0 °F - 75.2 °F 94% 29.77 in 1.9 mi North 3.5 mph - N/A   Scattered Clouds
4:00 AM 76 °F - 75 °F 97% 29.76 in 4 mi Calm Calm - -   Mist
4:00 AM 77.0 °F - 73.4 °F 89% 29.77 in 1.2 mi NNW 3.5 mph - N/A   Partly Cloudy
4:30 AM 77.0 °F - 75.2 °F 94% 29.77 in 1.2 mi NW 3.5 mph - N/A   Partly Cloudy
5:00 AM 77.0 °F - 73.4 °F 89% 29.77 in 1.2 mi North 2.3 mph - N/A   Partly Cloudy
5:30 AM 77.0 °F - 73.4 °F 89% 29.77 in 1.2 mi North 2.3 mph - N/A   Partly Cloudy
6:00 AM 77.0 °F - 73.4 °F 89% 29.77 in 0.6 mi NNW 3.5 mph - N/A Fog Fog
7:00 AM 76 °F - 76 °F 99% 29.80 in 4 mi Calm Calm - -   Mist
7:00 AM 77.0 °F - 75.2 °F 94% 29.80 in 0.5 mi North 4.6 mph - N/A Fog Fog
7:30 AM 77.0 °F - 75.2 °F 94% 29.80 in 0.5 mi North 4.6 mph - N/A Fog Fog
8:00 AM 78.8 °F - 75.2 °F 89% 29.83 in 0.6 mi North 4.6 mph - N/A   Scattered Clouds
8:30 AM 80.6 °F 87.1 °F 77.0 °F 89% 29.83 in - North 2.3 mph - N/A   Scattered Clouds
9:00 AM 82.4 °F 89.5 °F 75.2 °F 79% 29.83 in 1.2 mi North 2.3 mph - N/A   Scattered Clouds
9:30 AM 84.2 °F 92.3 °F 75.2 °F 74% 29.83 in 1.2 mi North 3.5 mph - N/A   Scattered Clouds
10:00 AM 83 °F - 78 °F 82% 29.85 in 5 mi West 3.5 mph - -   Mist
10:00 AM 84.2 °F 90.9 °F 73.4 °F 70% 29.83 in 1.2 mi North 2.3 mph - N/A   Partly Cloudy
10:30 AM 84.2 °F 90.9 °F 73.4 °F 70% 29.83 in 1.2 mi NNW 2.3 mph - N/A   Partly Cloudy
11:00 AM 86.0 °F 95.1 °F 75.2 °F 70% 29.83 in 1.2 mi WNW 3.5 mph - N/A   Partly Cloudy
12:00 PM 84.2 °F 92.3 °F 75.2 °F 74% 29.80 in 1.2 mi South 4.6 mph - N/A   Partly Cloudy
12:30 PM 86.0 °F 93.4 °F 73.4 °F 66% 29.80 in 1.2 mi South 6.9 mph - N/A   Partly Cloudy
1:00 PM 85 °F - 77 °F 72% 29.79 in 5 mi SW 4.6 mph - -   Mist
1:00 PM 86.0 °F 93.4 °F 73.4 °F 66% 29.77 in 1.2 mi South 6.9 mph - N/A   Partly Cloudy
1:30 PM 86.0 °F 95.1 °F 75.2 °F 70% 29.77 in 1.2 mi South 6.9 mph - N/A   Partly Cloudy
2:00 PM 84.2 °F 92.3 °F 75.2 °F 74% 29.74 in 1.9 mi South 9.2 mph - N/A   Partly Cloudy
2:30 PM 87.8 °F 97.6 °F 75.2 °F 66% 29.74 in 1.9 mi West 6.9 mph - N/A   Partly Cloudy
3:00 PM 86.0 °F 95.1 °F 75.2 °F 70% 29.74 in 1.9 mi West 6.9 mph - N/A   Partly Cloudy
3:30 PM 84.2 °F 94.1 °F 77.0 °F 79% 29.74 in 1.9 mi North 6.9 mph - N/A   Partly Cloudy
4:00 PM 86 °F - 77 °F 69% 29.75 in 5 mi NNE 5.8 mph - - Thunderstorm Thunderstorm
4:00 PM 82.4 °F 89.5 °F 75.2 °F 79% 29.74 in 1.2 mi NNE 11.5 mph 23.0 mph N/A Rain , Thunderstorm Light Thunderstorms and Rain
4:30 PM 77.0 °F - 75.2 °F 94% 29.74 in 1.9 mi Calm Calm - N/A Rain , Thunderstorm Light Thunderstorms and Rain
5:00 PM 78.8 °F - 75.2 °F 89% 29.74 in 1.9 mi North 4.6 mph - N/A Thunderstorm Partly Cloudy
5:30 PM 78.8 °F - 73.4 °F 83% 29.74 in 1.9 mi North 4.6 mph - N/A Rain Light Rain
6:00 PM 78.8 °F - 75.2 °F 89% 29.74 in 1.9 mi Calm Calm - N/A   Partly Cloudy
6:30 PM 78.8 °F - 75.2 °F 89% 29.77 in 1.9 mi Calm Calm - N/A   Partly Cloudy
7:00 PM 78 °F - 75 °F 88% 29.77 in 5 mi Calm Calm - -   Mist
7:00 PM 78.8 °F - 75.2 °F 89% 29.77 in 1.9 mi Calm Calm - N/A   Partly Cloudy
7:30 PM 78.8 °F - 75.2 °F 89% 29.77 in 1.9 mi Calm Calm - N/A   Partly Cloudy
8:00 PM 78.8 °F - 75.2 °F 89% 29.80 in 1.9 mi Calm Calm - N/A   Partly Cloudy
8:30 PM 77.0 °F - 75.2 °F 94% 29.80 in 1.9 mi Calm Calm - N/A   Partly Cloudy
9:00 PM 78.8 °F - 75.2 °F 89% 29.83 in 1.9 mi Calm Calm - N/A   Partly Cloudy
9:30 PM 77.0 °F - 75.2 °F 94% 29.83 in 1.9 mi Calm Calm - N/A   Partly Cloudy
10:00 PM 78 °F - 76 °F 91% 29.85 in 4 mi Calm Calm - -   Mist
10:00 PM 77.0 °F - 75.2 °F 94% 29.83 in 1.9 mi Calm Calm - N/A   Partly Cloudy
10:30 PM 77.0 °F - 75.2 °F 94% 29.83 in 1.9 mi Calm Calm - N/A   Partly Cloudy
11:00 PM 77.0 °F - 75.2 °F 94% 29.83 in 1.9 mi Calm Calm - N/A   Partly Cloudy
11:30 PM 78.8 °F - 75.2 °F 89% 29.83 in 1.9 mi Calm Calm - N/A   Partly Cloudy